Total_Precipitation_Accumulation
0.06 0.06 0.03 0.02 0.00 0.01 0.03 0.04 0.03 0.06 0.04 0.03 0.02 0.00 0.00 0.00 0.00 0.00 0.00 0.00 0.00 0.00 0.00 0.00 0.00 0.00 0.00 0.00 0.00 0.00 0.00 0.00 0.00 0.00 0.00 0.00 0.00 0.00 0.02 0.13 0.12 0.15 0.24 0.15
0.08 0.09 0.05 0.04 0.01 0.01 0.03 0.03 0.03 0.09 0.11 0.02 0.01 0.00 0.00 0.00 0.00 0.00 0.00 0.00 0.00 0.00 0.00 0.00 0.00 0.00 0.00 0.00 0.00 0.00 0.00 0.00 0.00 0.00 0.00 0.01 0.00 0.00 0.02 0.06 0.11 0.10 0.17 0.09
0.16 0.11 0.18 0.12 0.03 0.01 0.05 0.04 0.04 0.09 0.13 0.02 0.00 0.00 0.00 0.00 0.00 0.00 0.00 0.00 0.00 0.00 0.00 0.00 0.00 0.00 0.00 0.00 0.00 0.00 0.00 0.00 0.00 0.00 0.01 0.03 0.03 0.01 0.02 0.12 0.20 0.16 0.13 0.07
0.23 0.30 0.24 0.24 0.25 0.07 0.11 0.09 0.02 0.01 0.03 0.02 0.01 0.00 0.00 0.00 0.00 0.00 0.00 0.00 0.00 0.00 0.00 0.00 0.00 0.00 0.00 0.00 0.00 0.00 0.01 0.00 0.00 0.00 0.00 0.01 0.01 0.00 0.00 0.01 0.02 0.07 0.03 0.01
0.24 0.36 0.46 0.44 0.20 0.21 0.28 0.09 0.03 0.01 0.00 0.00 0.00 0.00 0.00 0.00 0.00 0.00 0.00 0.00 0.00 0.00 0.00 0.00 0.00 0.00 0.01 0.01 0.01 0.01 0.03 0.02 0.02 0.01 0.00 0.01 0.01 0.01 0.00 0.00 0.00 0.00 0.00 0.00
0.36 0.35 0.48 0.50 0.44 0.40 0.40 0.10 0.03 0.03 0.02 0.01 0.01 0.01 0.00 0.00 0.00 0.00 0.00 0.00 0.00 0.00 0.00 0.00 0.00 0.00 0.00 0.00 0.00 0.00 0.01 0.01 0.02 0.02 0.01 0.02 0.01 0.00 0.00 0.00 0.00 0.00 0.01 0.00
0.51 0.47 0.44 0.48 0.45 0.44 0.17 0.03 0.04 0.03 0.04 0.02 0.01 0.00 0.00 0.00 0.00 0.00 0.00 0.00 0.00 0.00 0.00 0.00 0.00 0.00 0.00 0.01 0.00 0.00 0.01 0.01 0.04 0.04 0.07 0.08 0.00 0.00 0.00 0.00 0.00 0.01 0.02 0.01
0.40 0.51 0.49 0.44 0.43 0.38 0.20 0.07 0.05 0.08 0.05 0.02 0.01 0.01 0.00 0.00 0.00 0.00 0.00 0.00 0.00 0.00 0.07 0.09 0.04 0.01 0.01 0.00 0.00 0.00 0.01 0.04 0.09 0.09 0.06 0.02 0.00 0.00 0.00 0.02 0.03 0.01 0.01 0.01
0.19 0.45 0.48 0.44 0.39 0.31 0.26 0.15 0.10 0.12 0.11 0.05 0.01 0.01 0.01 0.02 0.02 0.01 0.00 0.00 0.00 0.02 0.12 0.11 0.07 0.02 0.01 0.01 0.02 0.01 0.02 0.06 0.14 0.10 0.12 0.05 0.02 0.05 0.00 0.01 0.03 0.00 0.00 0.00
0.20 0.33 0.39 0.46 0.39 0.31 0.25 0.19 0.13 0.15 0.13 0.03 0.02 0.03 0.04 0.05 0.04 0.04 0.02 0.03 0.07 0.10 0.16 0.17 0.06 0.03 0.01 0.02 0.05 0.06 0.04 0.08 0.14 0.09 0.13 0.03 0.00 0.02 0.02 0.04 0.06 0.00 0.00 0.00
0.23 0.25 0.35 0.37 0.37 0.33 0.28 0.21 0.19 0.19 0.11 0.03 0.01 0.01 0.02 0.03 0.08 0.09 0.10 0.13 0.13 0.21 0.25 0.17 0.10 0.06 0.05 0.05 0.04 0.11 0.15 0.20 0.13 0.08 0.15 0.06 0.00 0.04 0.07 0.05 0.00 0.00 0.00 0.00
0.22 0.20 0.28 0.33 0.28 0.30 0.23 0.23 0.19 0.25 0.25 0.07 0.02 0.00 0.00 0.00 0.02 0.07 0.13 0.13 0.14 0.19 0.17 0.19 0.19 0.16 0.13 0.10 0.11 0.07 0.13 0.11 0.11 0.08 0.08 0.08 0.03 0.05 0.05 0.02 0.00 0.00 0.00 0.00
0.21 0.20 0.23 0.35 0.29 0.19 0.19 0.18 0.16 0.19 0.22 0.06 0.01 0.00 0.00 0.00 0.00 0.04 0.17 0.07 0.08 0.15 0.12 0.17 0.18 0.14 0.10 0.12 0.08 0.10 0.09 0.07 0.12 0.10 0.04 0.11 0.10 0.01 0.00 0.00 0.00 0.00 0.00 0.00
0.23 0.20 0.25 0.34 0.37 0.29 0.19 0.18 0.13 0.11 0.11 0.07 0.00 0.00 0.00 0.00 0.00 0.00 0.03 0.05 0.07 0.07 0.20 0.29 0.18 0.13 0.10 0.13 0.18 0.22 0.18 0.16 0.24 0.27 0.12 0.06 0.09 0.02 0.01 0.00 0.00 0.00 0.00 0.00
0.26 0.21 0.26 0.34 0.31 0.33 0.28 0.20 0.18 0.09 0.11 0.14 0.01 0.00 0.00 0.00 0.01 0.01 0.03 0.10 0.13 0.16 0.19 0.27 0.14 0.05 0.08 0.06 0.06 0.02 0.01 0.08 0.17 0.23 0.10 0.04 0.05 0.00 0.00 0.00 0.00 0.00 0.00 0.00
0.28 0.22 0.23 0.27 0.29 0.40 0.49 0.61 0.34 0.19 0.15 0.12 0.02 0.00 0.00 0.00 0.00 0.02 0.06 0.12 0.25 0.30 0.21 0.13 0.09 0.04 0.13 0.13 0.05 0.00 0.01 0.03 0.06 0.09 0.04 0.01 0.00 0.00 0.00 0.00 0.00 0.00 0.00 0.00
0.27 0.24 0.22 0.21 0.29 0.30 0.35 0.22 0.08 0.06 0.10 0.15 0.05 0.01 0.02 0.00 0.02 0.07 0.16 0.28 0.35 0.31 0.26 0.16 0.06 0.05 0.14 0.16 0.03 0.01 0.00 0.00 0.00 0.00 0.00 0.00 0.00 0.00 0.00 0.00 0.00 0.00 0.00 0.00
0.23 0.20 0.16 0.16 0.28 0.31 0.21 0.10 0.02 0.12 0.16 0.12 0.08 0.02 0.09 0.07 0.14 0.16 0.19 0.27 0.29 0.34 0.33 0.20 0.06 0.07 0.14 0.12 0.00 0.00 0.00 0.00 0.00 0.00 0.00 0.00 0.00 0.00 0.00 0.00 0.00 0.00 0.00 0.00
0.14 0.13 0.20 0.26 0.27 0.22 0.13 0.07 0.05 0.13 0.22 0.23 0.06 0.02 0.11 0.09 0.15 0.17 0.19 0.20 0.22 0.18 0.13 0.05 0.06 0.14 0.10 0.01 0.00 0.00 0.00 0.00 0.00 0.00 0.00 0.00 0.00 0.00 0.00 0.00 0.00 0.00 0.00 0.00
0.06 0.12 0.20 0.17 0.11 0.09 0.13 0.26 0.38 0.43 0.38 0.16 0.06 0.03 0.09 0.12 0.17 0.25 0.20 0.17 0.16 0.10 0.04 0.04 0.06 0.02 0.00 0.00 0.00 0.00 0.00 0.01 0.00 0.00 0.00 0.00 0.00 0.00 0.00 0.00 0.00 0.00 0.00 0.00
0.06 0.10 0.12 0.13 0.22 0.30 0.35 0.37 0.27 0.25 0.21 0.04 0.01 0.00 0.05 0.11 0.13 0.14 0.14 0.19 0.16 0.12 0.08 0.06 0.05 0.01 0.00 0.00 0.00 0.00 0.02 0.01 0.00 0.00 0.00 0.00 0.00 0.00 0.00 0.00 0.00 0.00 0.00 0.00
0.03 0.09 0.19 0.44 0.41 0.28 0.20 0.20 0.11 0.08 0.05 0.01 0.01 0.01 0.02 0.10 0.06 0.09 0.07 0.10 0.19 0.10 0.04 0.03 0.00 0.00 0.00 0.00 0.01 0.01 0.02 0.02 0.00 0.00 0.00 0.00 0.00 0.00 0.00 0.00 0.00 0.00 0.00 0.00
0.14 0.20 0.23 0.25 0.17 0.18 0.08 0.08 0.04 0.06 0.05 0.03 0.05 0.04 0.06 0.07 0.06 0.09 0.08 0.07 0.02 0.01 0.01 0.00 0.00 0.00 0.00 0.00 0.00 0.00 0.00 0.00 0.00 0.00 0.00 0.00 0.00 0.00 0.00 0.00 0.00 0.00 0.00 0.00
0.14 0.09 0.12 0.13 0.10 0.02 0.02 0.05 0.05 0.06 0.06 0.08 0.07 0.07 0.06 0.04 0.04 0.04 0.06 0.03 0.01 0.00 0.00 0.00 0.00 0.00 0.00 0.00 0.00 0.00 0.00 0.00 0.00 0.00 0.00 0.00 0.00 0.00 0.00 0.00 0.00 0.00 0.00 0.00
0.10 0.06 0.11 0.02 0.03 0.01 0.01 0.00 0.01 0.01 0.05 0.08 0.10 0.13 0.08 0.16 0.05 0.01 0.02 0.00 0.00 0.00 0.00 0.00 0.00 0.00 0.00 0.00 0.00 0.00 0.00 0.00 0.00 0.00 0.00 0.00 0.00 0.00 0.00 0.00 0.00 0.00 0.00 0.00
0.04 0.02 0.04 0.03 0.03 0.02 0.01 0.01 0.01 0.01 0.06 0.09 0.12 0.12 0.09 0.08 0.01 0.00 0.00 0.00 0.00 0.00 0.00 0.00 0.00 0.00 0.00 0.00 0.00 0.00 0.00 0.00 0.00 0.00 0.00 0.00 0.00 0.00 0.00 0.00 0.00 0.00 0.00 0.00
0.04 0.04 0.02 0.02 0.04 0.05 0.03 0.02 0.01 0.01 0.08 0.19 0.21 0.03 0.01 0.00 0.00 0.00 0.00 0.00 0.00 0.00 0.01 0.01 0.00 0.00 0.00 0.00 0.00 0.00 0.00 0.00 0.00 0.00 0.00 0.00 0.00 0.00 0.00 0.00 0.00 0.00 0.00 0.00